Morgantown, WV

7:21 PM EDT on July 25, 2017 (GMT -0400)
Morgantown Municipal-Hart

Weather History for KMGW - December, 2004

Change the Weather History Date:

Monday, December 27, 2004

  Actual Average Record
Temperature  
Mean Temperature 20 °F 32 °F  
Max Temperature 24 °F 40 °F 72 °F (2015)
Min Temperature 14 °F 25 °F -3 °F (1950)
Degree Days  
Heating Degree Days 45 33  
Month to date heating degree days 805  
Since 1 July heating degree days 1853  
Cooling Degree Days 0 0  
Month to date cooling degree days 0  
Year to date cooling degree days 814  
Moisture  
Dew Point 12 °F    
Average Humidity 74    
Maximum Humidity 93    
Minimum Humidity 48    
Precipitation  
Precipitation 0.00 in 0.08 in 1.11 in (2011)
Month to date precipitation 2.57  
Year to date precipitation 41.49  
Sea Level Pressure  
Sea Level Pressure 30.58 in    
Wind  
Wind Speed 6 mph (NNW)    
Max Wind Speed 8 mph    
Max Gust Speed 16 mph    
Visibility 9 miles    
Events Snow    
T = Trace of Precipitation, MM = Missing Value Source: NWS Daily Summary

Daily Weather History Graph

Daily Weather History Graph

Search for Another Location

Airport or City:

Trip Planner

Search our weather history database for the weather conditions in past years. The results will help you decide how hot, cold, wet, or windy it might be!

Date:

Astronomy

Dec. 27, 2004 Rise Set
Actual Time 7:39 AM EST 5:02 PM EST
Civil Twilight 7:09 AM EST 5:32 PM EST
Nautical Twilight 6:35 AM EST 6:06 PM EST
Astronomical Twilight 6:02 AM EST 6:39 PM EST
Moon 5:48 PM EST (12/27) 8:48 AM EST (12/27)
Length of Visible Light 10h 23m
Length of Day
9h 23m
Full, 99% of the Moon is Illuminated
Dec 27
Full
Jan 3
Last Quarter
Jan 10
New
Jan 17
First Quarter
Jan 25
Full

Hourly Weather History & Observations

Time (EST) Temp. Windchill Dew Point Humidity Pressure Visibility Wind Dir Wind Speed Gust Speed Precip Events Conditions
12:53 AM 21.0 °F 11.4 °F 17.1 °F 85% 30.40 in 6.0 mi WNW 8.1 mph - 0.00 in   Overcast
1:53 AM 21.0 °F 12.4 °F 18.0 °F 88% 30.43 in 8.0 mi Variable 6.9 mph - 0.00 in   Overcast
2:53 AM 21.0 °F 14.6 °F 18.0 °F 88% 30.46 in 10.0 mi Variable 4.6 mph - 0.00 in   Overcast
3:28 AM 21.2 °F 13.6 °F 17.6 °F 86% 30.42 in 10.0 mi WNW 5.8 mph - N/A   Overcast
3:53 AM 21.0 °F 14.6 °F 18.0 °F 88% 30.47 in 6.0 mi Variable 4.6 mph - N/A   Overcast
4:12 AM 21.2 °F 13.6 °F 19.4 °F 93% 30.43 in 3.0 mi WNW 5.8 mph - 0.00 in Snow Light Snow
4:53 AM 21.0 °F 14.6 °F 18.0 °F 88% 30.49 in 10.0 mi NW 4.6 mph - 0.00 in   Overcast
5:31 AM 21.2 °F 13.6 °F 17.6 °F 86% 30.46 in 9.0 mi NNW 5.8 mph - N/A   Overcast
5:53 AM 21.0 °F 12.4 °F 18.0 °F 88% 30.51 in 5.0 mi NNW 6.9 mph - 0.00 in Snow Light Snow
6:53 AM 19.0 °F 10.0 °F 15.1 °F 85% 30.56 in 10.0 mi North 6.9 mph - 0.00 in   Mostly Cloudy
7:30 AM 17.6 °F 8.2 °F 14.0 °F 86% 30.53 in 10.0 mi NNW 6.9 mph - N/A   Partly Cloudy
7:53 AM 17.1 °F 10.0 °F 12.9 °F 84% 30.60 in 10.0 mi NW 4.6 mph - N/A   Clear
8:53 AM 18.0 °F 9.8 °F 12.9 °F 81% 30.63 in 10.0 mi NW 5.8 mph - N/A   Partly Cloudy
9:53 AM 19.0 °F 9.0 °F 12.0 °F 74% 30.65 in 10.0 mi North 8.1 mph - N/A   Partly Cloudy
10:53 AM 19.9 °F 10.1 °F 8.1 °F 60% 30.66 in 10.0 mi North 8.1 mph - N/A   Partly Cloudy
11:53 AM 21.0 °F 12.4 °F 6.1 °F 53% 30.65 in 10.0 mi North 6.9 mph 16.1 mph N/A   Partly Cloudy
12:53 PM 21.9 °F 12.5 °F 7.0 °F 53% 30.64 in 10.0 mi North 8.1 mph - N/A   Partly Cloudy
1:53 PM 24.1 °F 16.0 °F 8.1 °F 51% 30.63 in 10.0 mi North 6.9 mph - N/A   Clear
2:53 PM 24.1 °F 15.2 °F 7.0 °F 48% 30.63 in 10.0 mi West 8.1 mph - N/A   Clear
3:53 PM 24.1 °F 18.2 °F 7.0 °F 48% 30.63 in 10.0 mi Variable 4.6 mph - N/A   Clear
4:53 PM 21.9 °F 13.4 °F 8.1 °F 55% 30.65 in 10.0 mi North 6.9 mph - N/A   Clear
5:53 PM 21.9 °F - 9.0 °F 58% 30.67 in 10.0 mi Calm Calm - N/A   Clear
6:53 PM 19.9 °F - 8.1 °F 60% 30.68 in 10.0 mi Calm Calm - N/A   Clear
7:53 PM 18.0 °F - 9.0 °F 68% 30.68 in 10.0 mi Calm Calm - N/A   Clear
8:53 PM 18.0 °F - 10.0 °F 71% 30.67 in 10.0 mi Calm Calm - N/A   Clear
9:53 PM 17.1 °F - 10.9 °F 77% 30.68 in 10.0 mi Calm Calm - N/A   Clear
10:53 PM 16.0 °F - 10.9 °F 81% 30.67 in 10.0 mi Calm Calm - N/A   Clear
11:53 PM 14.0 °F - 10.0 °F 84% 30.65 in 10.0 mi Calm Calm - N/A   Clear